Starlink 4057

operational
NORAD ID: 53269 Int'l Des: 2022-086 Owner: SPXS Country: US Constellation: starlink
LEOCIRCULAR

Starlink 4057について

説明を読み込み中...

リアルタイム位置

3D地球を読み込み中...

次回通過

高度履歴

Altitude vs Time

uPlot chart will show altitude changes over time

軌道要素

1 53269U 22086AD 25304.60864990 -.00001283 00000-0 -62497-4 0 9997
2 53269 53.2173 43.5848 0001439 95.2031 264.9126 15.08848462181711
Epoch: Oct 31, 2025 • Age: 9 hours

現在のステータス

高度 540.5 km
速度 7.59 km/s
衛星直下点 0.04°N, 168.84°W
打ち上げ日 Jul 24, 2022
運用期間 3.2 years
タイプ internet

技術仕様

分類 Payload
質量 297.00 kg
乾燥質量 275.00 kg
総質量 297.00 kg
長さ 0.20 m
直径 2.80 m
スパン 9.00 m
形状 Box + pan
製造者 SPXS
バスタイプ Starlink
フェーズステータス In Orbit
所有者/国 SPXS/US

大規模コンステレーション

Loading constellations...